(248546) = 1999 TC275 = 2005 XC28

Discovered at Palomar on 2005-12-01 by NEAT.

Orbit

Orbit type: Main Belt

Note: WebGL enabled browser required.

epoch2024-03-31.0
epoch JD2460400.5
perihelion date2022-03-18.39369
perihelion JD2459656.89369
argument of perihelion (°)50.31511
ascending node (°)338.82938
inclination (°)4.17214
eccentricity0.1411656
perihelion distance (AU)2.6958233
Tisserand w.r.t. Jupiter3.2
ΔV w.r.t. Earth (km/sec)10.3
semimajor axis (AU)3.1389327
mean anomaly (°)131.78740
mean daily motion (°/day)0.17722740
aphelion distance (AU)3.582
period (years)5.56
P-vector [x]0.87265783
P-vector [y]0.42281051
P-vector [z]0.24433499
Q-vector [x]-0.48762482
Q-vector [y]0.78139604
Q-vector [z]0.38941273
absolute magnitude16.14
phase slope0.15
uncertainty0
referenceMPEC 2024-F14
observations used371
oppositions16
arc length (days)8929
first opposition used1999
last opposition used2024
residual rms (arc-secs)0.69
perturbers coarse indicatorM-v
perturbers precise indicator003Ek
first observation date used1999-10-06.0
last observation date used2024-03-17.0
computer nameMPCLINUX
JD of orbit computation2456819.658628
perihelion JD uncertainty (days)1.2305E-04
argument of perihelion uncertainty (°)6.3094E-05
ascending node uncertainty (°)5.9489E-05
inclination uncertainty (°)7.0383E-06
eccentricity uncertainty 5.2336E-08
perihelion distance uncertainty (AU)1.6608E-07
Minimum Orbit Intersection Distances (in AU)
for orbit epoch: 2460400.5, reference: E2024-G17
Mercury2.3648
Venus1.97632
Earth1.70323
Mars1.25025
Jupiter1.88931
Saturn5.95347
Uranus14.9537
Neptune27.0797

Observations

376 total observations over interval: 1999 10 06.23716 – 2024 03 17.454750
These data are available for download (format description).

Date (UT) J2000 RA J2000 Dec Magn Location Ref
1999 10 06.23716 00 01 14.00 +03 19 33.7 19.5   704 – Lincoln Laboratory ETS, New Mexico MPS 15474
1999 10 06.25034 00 01 13.39 +03 19 31.0 19.4   704 – Lincoln Laboratory ETS, New Mexico MPS 15474
1999 10 06.26354 00 01 12.82 +03 19 28.5 19.5   704 – Lincoln Laboratory ETS, New Mexico MPS 15474
1999 10 06.27672 00 01 12.19 +03 19 24.9 19.1   704 – Lincoln Laboratory ETS, New Mexico MPS 15474
1999 10 06.28994 00 01 11.57 +03 19 23.1 19.5   704 – Lincoln Laboratory ETS, New Mexico MPS 15474
1999 10 13.34461 23 56 13.40 +02 55 23.3 20.2   704 – Lincoln Laboratory ETS, New Mexico MPS 15474
1999 10 13.37623 23 56 12.24 +02 55 17.1 20.0   704 – Lincoln Laboratory ETS, New Mexico MPS 15474
1999 10 13.39187 23 56 11.58 +02 55 13.7 20.1   704 – Lincoln Laboratory ETS, New Mexico MPS 15474
2004 09 12.191387 20 23 40.460 -21 30 35.93 21.00 V 645 – Apache Point-Sloan Digital Sky Survey MPS 390417
2004 09 12.194859 20 23 40.405 -21 30 35.90 21.55   645 – Apache Point-Sloan Digital Sky Survey MPS 390417
2005 10 24.37552 03 52 40.27 +26 20 02.8 20.3 V 691 – Steward Observatory, Kitt Peak-Spacewatch MPS 155485
2005 10 24.39312 03 52 39.58 +26 20 03.0 20.1 V 691 – Steward Observatory, Kitt Peak-Spacewatch MPS 155485
2005 10 24.41067 03 52 38.93 +26 20 03.0 20.3 V 691 – Steward Observatory, Kitt Peak-Spacewatch MPS 155485
2005 12 01.29374 03 21 20.28 +25 04 44.4 20.2 R 644 – Palomar Mountain/NEAT MPS 154118
2005 12 01.31470 03 21 19.26 +25 04 40.5 20.2 R 644 – Palomar Mountain/NEAT MPS 154118
2005 12 01.33823 03 21 18.11 +25 04 35.0 20.5 R 644 – Palomar Mountain/NEAT MPS 154118
2005 12 02.22404 03 20 36.74 +25 01 32.1 19.9   704 – Lincoln Laboratory ETS, New Mexico MPS 154118
2005 12 02.23661 03 20 36.12 +25 01 29.4 20.6   704 – Lincoln Laboratory ETS, New Mexico MPS 154118
2005 12 02.26210 03 20 34.85 +25 01 26.0 20.0   704 – Lincoln Laboratory ETS, New Mexico MPS 154118
2007 01 28.36306 10 14 21.44 +12 31 51.0 21.0 V G96 – Mt. Lemmon Survey MPS 198175
2007 01 28.37269 10 14 21.04 +12 31 52.6 21.2 V G96 – Mt. Lemmon Survey MPS 198175
2007 01 28.38237 10 14 20.65 +12 31 54.6 21.3 V G96 – Mt. Lemmon Survey MPS 198175
2007 01 28.39194 10 14 20.25 +12 31 56.0 21.3 V G96 – Mt. Lemmon Survey MPS 198175
2007 02 23.22550 09 54 03.81 +13 56 31.5 20.7 V G96 – Mt. Lemmon Survey MPS 201552
2007 02 23.23097 09 54 03.49 +13 56 32.8 20.5 V G96 – Mt. Lemmon Survey MPS 201552
2007 02 23.23646 09 54 03.20 +13 56 33.5 20.4 V G96 – Mt. Lemmon Survey MPS 201552
2007 02 23.24219 09 54 02.95 +13 56 34.7 20.7 V G96 – Mt. Lemmon Survey MPS 201552
2007 03 14.29110 09 40 39.50 +14 43 31.3 19.4 V G96 – Mt. Lemmon Survey MPS 203130
2007 03 14.29853 09 40 39.21 +14 43 30.1 20.4 V G96 – Mt. Lemmon Survey MPS 203130
2007 03 14.30593 09 40 38.96 +14 43 31.0 20.5 V G96 – Mt. Lemmon Survey MPS 203130
2007 03 14.31348 09 40 38.67 +14 43 31.7 20.5 V G96 – Mt. Lemmon Survey MPS 203130
2007 03 16.13506 09 39 38.62 +14 46 28.5 21.4 V 691 – Steward Observatory, Kitt Peak-Spacewatch MPS 203130
2007 03 16.15667 09 39 37.86 +14 46 31.2 21.2 V 691 – Steward Observatory, Kitt Peak-Spacewatch MPS 203130
2007 03 16.17826 09 39 37.15 +14 46 32.9 21.5 V 691 – Steward Observatory, Kitt Peak-Spacewatch MPS 203130
2007 03 26.13414 09 35 15.36 +14 57 04.2 21.4 V G96 – Mt. Lemmon Survey MPS 205564
2007 03 26.14009 09 35 15.21 +14 57 04.6 21.1 V G96 – Mt. Lemmon Survey MPS 205564
2007 03 26.14604 09 35 15.10 +14 57 04.3 21.7 V G96 – Mt. Lemmon Survey MPS 205564
2007 03 26.15201 09 35 14.92 +14 57 05.1 21.6 V G96 – Mt. Lemmon Survey MPS 205564
2008 04 14.36042 13 40 10.48 -15 03 06.2 21.1 V G96 – Mt. Lemmon Survey MPS 286922
2008 04 14.36713 13 40 10.16 -15 03 05.0 21.0 V G96 – Mt. Lemmon Survey MPS 286922
2008 04 14.37383 13 40 09.87 -15 03 03.6 21.1 V G96 – Mt. Lemmon Survey MPS 286922
2008 04 14.38052 13 40 09.55 -15 03 01.8 21.2 V G96 – Mt. Lemmon Survey MPS 286922
2010 06 16.127913 23 41 37.01 -02 26 21.1   C51 – WISE MPS 333580
2010 06 16.260216 23 41 43.327 -02 25 30.58   C51 – WISE MPS 903754
2010 06 16.392521 23 41 49.704 -02 24 44.53   C51 – WISE MPS 903754
2010 06 16.524824 23 41 56.20 -02 23 55.5   C51 – WISE MPS 333580
2010 06 16.590912 23 41 59.347 -02 23 31.20   C51 – WISE MPS 903754
2010 06 16.591039 23 41 59.30 -02 23 30.8   C51 – WISE MPS 333580
2010 06 16.657128 23 42 02.46 -02 23 05.7   C51 – WISE MPS 333580
2010 06 16.723216 23 42 05.57 -02 22 44.4   C51 – WISE MPS 333580
2010 06 17.120127 23 42 24.58 -02 20 16.5   C51 – WISE MPS 333580
2010 06 17.252432 23 42 30.895 -02 19 29.24   C51 – WISE MPS 903754
2010 08 13.34957 23 59 13.69 +00 46 35.4   691 – Steward Observatory, Kitt Peak-Spacewatch MPS 343728
2010 08 13.36735 23 59 13.33 +00 46 35.2   691 – Steward Observatory, Kitt Peak-Spacewatch MPS 343728
2010 08 13.38515 23 59 13.01 +00 46 33.9   691 – Steward Observatory, Kitt Peak-Spacewatch MPS 343728
2010 09 01.38064 23 49 47.65 +00 20 13.3 20.1   704 – Lincoln Laboratory ETS, New Mexico MPS 347042
2010 09 01.39207 23 49 47.19 +00 20 12.3 20.0   704 – Lincoln Laboratory ETS, New Mexico MPS 347042
2010 09 01.40348 23 49 46.74 +00 20 10.6 20.0   704 – Lincoln Laboratory ETS, New Mexico MPS 347042
2010 09 01.41488 23 49 46.27 +00 20 09.4 20.0   704 – Lincoln Laboratory ETS, New Mexico MPS 347042
2010 09 02.27541 23 49 11.95 +00 17 59.5 20.2 R I41 – Palomar Mountain--ZTF MPS 1534088
2010 09 02.31881 23 49 10.16 +00 17 52.7 20.6 R I41 – Palomar Mountain--ZTF MPS 1534088
2010 09 08.26435 23 44 56.14 +00 01 20.7 20.3   704 – Lincoln Laboratory ETS, New Mexico MPS 347850
2010 09 08.27621 23 44 55.61 +00 01 19.9 20.2   704 – Lincoln Laboratory ETS, New Mexico MPS 347850
2010 09 08.28814 23 44 55.04 +00 01 15.9 19.8   704 – Lincoln Laboratory ETS, New Mexico MPS 347850
2010 09 08.30027 23 44 54.53 +00 01 13.9 19.7   704 – Lincoln Laboratory ETS, New Mexico MPS 347850
2010 09 09.97059 23 43 39.33 -00 03 55.2 19.2 V J75 – OAM Observatory, La Sagra MPS 349341
2010 09 09.98347 23 43 38.71 -00 03 56.9 19.6 V J75 – OAM Observatory, La Sagra MPS 349341
2010 09 09.99635 23 43 38.11 -00 03 58.8 19.5 V J75 – OAM Observatory, La Sagra MPS 349341
2010 09 11.31483 23 42 37.87 -00 08 09.0 19.5 V 703 – Catalina Sky Survey MPS 349341
2010 09 11.32110 23 42 37.54 -00 08 08.8 19.3 V 703 – Catalina Sky Survey MPS 349341
2010 09 11.32743 23 42 37.18 -00 08 11.3 19.1 V 703 – Catalina Sky Survey MPS 349341
2010 09 11.33381 23 42 36.93 -00 08 11.1 19.6 V 703 – Catalina Sky Survey MPS 349341
2010 09 13.97036 23 40 34.77 -00 16 46.5 19.5 V J75 – OAM Observatory, La Sagra MPS 349341
2010 09 13.98221 23 40 34.21 -00 16 48.8 19.9 V J75 – OAM Observatory, La Sagra MPS 349341
2010 09 13.99413 23 40 33.59 -00 16 50.7 19.5 V J75 – OAM Observatory, La Sagra MPS 349341
2010 09 16.489934 23 38 36.311 -00 25 10.60 19.91 w F51 – Pan-STARRS 1, Haleakala MPS 366763
2010 09 16.512881 23 38 35.190 -00 25 15.24 19.97 w F51 – Pan-STARRS 1, Haleakala MPS 366763
2010 09 16.524414 23 38 34.624 -00 25 17.64 19.98 w F51 – Pan-STARRS 1, Haleakala MPS 366763
2010 09 26.512076 23 30 50.231 -00 59 21.14 19.91 i F51 – Pan-STARRS 1, Haleakala MPS 366763
2010 09 26.515021 23 30 50.108 -00 59 21.55 19.90 i F51 – Pan-STARRS 1, Haleakala MPS 366763
2010 09 26.520883 23 30 49.831 -00 59 22.92 19.88 i F51 – Pan-STARRS 1, Haleakala MPS 366763
2010 09 26.523888 23 30 49.690 -00 59 23.50 19.81 i F51 – Pan-STARRS 1, Haleakala MPS 366763
2010 09 28.383625 23 29 27.123 -01 05 34.29 19.89 r F51 – Pan-STARRS 1, Haleakala MPS 366763
2010 09 28.394691 23 29 26.613 -01 05 36.56 19.81 r F51 – Pan-STARRS 1, Haleakala MPS 366763
2010 09 29.383876 23 28 43.374 -01 08 50.88 19.92 i F51 – Pan-STARRS 1, Haleakala MPS 366763
2010 09 29.389816 23 28 43.101 -01 08 51.99 20.12 i F51 – Pan-STARRS 1, Haleakala MPS 366763
2010 09 29.400081 23 28 42.648 -01 08 54.15 20.02 i F51 – Pan-STARRS 1, Haleakala MPS 366763
2010 10 09.14518 23 22 16.96 -01 37 49.4 19.7 V G96 – Mt. Lemmon Survey MPS 353605
2010 10 09.15212 23 22 16.75 -01 37 50.5 19.8 V G96 – Mt. Lemmon Survey MPS 353605
2010 10 09.15895 23 22 16.46 -01 37 51.4 20.1 V G96 – Mt. Lemmon Survey MPS 353605
2010 10 09.16585 23 22 16.21 -01 37 52.4 20.0 V G96 – Mt. Lemmon Survey MPS 353605
